Вернуться в каталог

STARLINK-2251

АктивенСвязьVLEO
NORAD 48594·PAYLOAD·🇺🇸 United States

Запущен May 15, 2021 с Cape Canaveral Space Force Station

Loading…

Ближайшие Пролёты (ближайшие 24 часа)

TLE

СвежийSource: CelesTrak SupGP

Эпоха: Sep 14, 2026, 20:36 UTC

1 48594C 21041AT  26257.85881944 -.00028535  00000+0 -91759-3 0  2572
2 48594  53.1599 315.5311 0001304  80.0752 145.4052 15.31717369    18

Отслеживайте STARLINK-2251 в реальном времени с AllMySat

Download on the App Store